User: anonymous
Location: Oshawa
(43.9000°N, 78.8670°W)
Time: 03:02:25
(UTC-04:00)
Language:

Iridium 54 - Orbit

View from above orbital plane
View from above orbital plane
View from above satellite
View from above satellite

Ground track
Ground track

The orbit data is extracted from the following two-line orbital elements,

1 25171U 98010C   14245.46749306  .00000082  00000-0  22109-4 0  8929
2 25171 086.3935 056.1958 0002079 109.0265 251.1156 14.34218786865911
Epoch (UTC): 02 September 2014 11:13:11
Eccentricity: 0.0002079
inclination: 86.3935°
perigee height: 776 km
apogee height: 779 km
right ascension of ascending node: 56.1958°
argument of perigee: 109.0265°
revolutions per day: 14.34218786
mean anomaly at epoch: 251.1156°
orbit number at epoch: 86591

The dashed part of the orbit path shows where the satellite is in the earth's shadow,  

DLR